[[{"header":{"parameterUnit":"m.s-1","parameterCategory":1,"la1":30.2992,"la2":30.254,"lo1":-89.0895,"lo2":-89.0443,"dy":0.0025,"dx":0.0025,"nx":19,"ny":19,"refTime":"2026-03-10T03:00:00:Z","depth":0,"parameterNumber":2,"parameterNumberName":"U-component_of_WINDS"},"data":[0,0,0,-2.1858,-2.186,-2.1955,-2.1955,-2.2075,-2.2076,0,0,0,0,0,0,0,0,0,0,0,-2.1826,-2.1827,-2.1858,-2.186,-2.1955,-2.1956,-2.2074,-2.2076,0,0,0,0,0,0,0,0,0,0,0,-2.1826,-2.1827,-2.1828,-2.186,-2.1955,-2.1956,-2.2074,-2.2004,0,0,0,0,0,0,0,0,0,0,-2.1912,-2.1879,-2.1827,-2.1828,-2.1861,-2.1955,-2.1956,-2.2,-2.2008,-2.203,0,-2.2047,0,-2.2063,-2.2083,-2.2084,0,0,0,-2.1863,-2.1872,-2.1901,-2.1828,-2.1862,-2.1955,-2.1913,-2.2005,-2.2013,-2.204,-2.2048,-2.2053,-2.2065,-2.2084,-2.2085,-2.2196,-2.2196,0,0,-2.1858,-2.1842,-2.1895,-2.1906,-2.189,-2.191,-2.1916,-2.201,-2.2019,-2.2049,-2.2056,-2.2067,-2.2085,-2.2086,-2.2195,-2.2196,0,0,0,-2.184,-2.1838,-2.1864,-2.1901,-2.1919,-2.1913,-2.1919,-2.2015,-2.2024,-2.2057,-2.2068,-2.2085,-2.2087,-2.2195,-2.2196,-2.2198,0,0,0,-2.1837,-2.1828,-2.1862,-2.1854,-2.1917,-2.1968,-2.1922,-2.2018,-2.2029,-2.2068,-2.2085,-2.2088,-2.2195,-2.2195,-2.2197,-2.2202,0,0,0,-2.1821,-2.1826,-2.1839,-2.1852,-2.1893,-2.1966,-2.1982,-2.2021,-2.2036,-2.2084,-2.2088,-2.2194,-2.2195,-2.2196,-2.22,-2.2225,0,0,0,-2.18,-2.1841,-2.1839,-2.1889,-2.1892,-2.1967,-2.1981,-2.2039,-2.208,-2.2086,-2.2195,-2.2196,-2.2196,-2.2199,-2.2224,-2.2243,-2.2249,0,0,-2.1843,-2.1845,-2.1876,-2.1877,-2.1948,-2.1954,-2.2026,-2.208,-2.21,-2.2163,-2.2166,-2.2197,-2.22,-2.2225,-2.2293,-2.2297,0,0,0,-2.1885,-2.1906,-2.1929,-2.1967,-2.2008,-2.2044,-2.2088,-2.2108,-2.2162,-2.2128,-2.2214,-2.2217,-2.2232,-2.2241,-2.2246,-2.226,-2.22,-2.2199,-2.2199,-2.1923,-2.1945,-2.1997,-2.2031,-2.2068,-2.2112,-2.2145,-2.218,-2.2192,-2.2212,-2.2231,-2.2269,-2.2279,-2.2282,-2.2297,-2.2243,-2.2243,-2.2243,-2.2243,-2.1987,-2.2021,-2.2036,-2.2092,-2.2116,-2.2164,-2.2209,-2.2216,-2.2265,-2.2257,-2.2271,-2.2259,-2.2287,-2.2301,-2.2244,-2.2244,-2.2244,-2.2244,-2.2244,-2.2014,-2.2034,-2.2057,-2.2113,-2.2155,-2.2189,-2.2234,-2.2255,-2.2275,-2.229,-2.2311,-2.2311,-2.2313,-2.2299,-2.2299,-2.2299,-2.2299,-2.2299,-2.2299,-2.2032,-2.2058,-2.2093,-2.2139,-2.2166,-2.2204,-2.225,-2.2278,-2.2314,-2.2326,-2.2326,-2.2336,-2.2286,-2.2272,-2.2301,-2.2301,-2.2301,-2.2301,-2.23,-2.2087,-2.2078,-2.2132,-2.2158,-2.2215,-2.2255,-2.2281,-2.2336,-2.2362,-2.2384,-2.2392,-2.2351,-2.2356,-2.2352,-2.2341,-2.2387,-2.2387,-2.2387,-2.2387,-2.2109,-2.2113,-2.2172,-2.2214,-2.2257,-2.2286,-2.2347,-2.2383,-2.242,-2.2438,-2.2435,-2.2422,-2.2418,-2.2425,-2.242,-2.241,-2.2472,-2.2472,-2.2472,-2.2144,-2.2153,-2.22,-2.2234,-2.228,-2.2319,-2.2378,-2.2426,-2.2466,-2.2476,-2.2452,-2.2449,-2.2428,-2.2421,-2.2429,-2.2421,-2.2402,0,0]},{"header":{"parameterUnit":"m.s-1","parameterCategory":1,"la1":30.2992,"la2":30.254,"lo1":-89.0895,"lo2":-89.0443,"dy":0.0025,"dx":0.0025,"nx":19,"ny":19,"refTime":"2026-03-10T03:00:00:Z","depth":0,"parameterNumber":3,"parameterNumberName":"V-component_of_WINDS"},"data":[0,0,0,4.4409,4.4412,4.4583,4.4584,4.48,4.4802,0,0,0,0,0,0,0,0,0,0,0,4.4355,4.4356,4.4408,4.4413,4.4583,4.4584,4.48,4.4802,0,0,0,0,0,0,0,0,0,0,0,4.4354,4.4356,4.4357,4.4413,4.4583,4.4584,4.4799,4.4672,0,0,0,0,0,0,0,0,0,0,4.4507,4.4453,4.4355,4.4357,4.4414,4.4583,4.4584,4.4666,4.468,4.4722,0,4.4756,0,4.4782,4.4816,4.4817,0,0,0,4.4416,4.4441,4.449,4.4358,4.4416,4.4582,4.4507,4.4674,4.469,4.474,4.4759,4.4767,4.4786,4.4818,4.4819,4.5047,4.5048,0,0,4.4406,4.4384,4.4479,4.45,4.4471,4.4501,4.4512,4.4683,4.4703,4.476,4.4772,4.4789,4.4819,4.4821,4.5046,4.5047,0,0,0,4.4377,4.4377,4.4422,4.4491,4.4522,4.4506,4.4519,4.4695,4.4712,4.4775,4.4792,4.482,4.4823,4.5045,4.5047,4.5072,0,0,0,4.4372,4.436,4.4418,4.4406,4.4519,4.461,4.4527,4.47,4.472,4.4791,4.482,4.4825,4.5044,4.5046,4.5069,4.5088,0,0,0,4.4345,4.4357,4.4381,4.4404,4.4477,4.4608,4.4634,4.4705,4.4731,4.4817,4.4826,4.5044,4.5046,4.5067,4.5084,4.5144,0,0,0,4.431,4.44,4.438,4.4488,4.4475,4.4621,4.4633,4.4744,4.4821,4.4821,4.5044,4.5046,4.5066,4.5081,4.5141,4.5191,4.5209,0,0,4.4411,4.4411,4.4476,4.4464,4.4608,4.4597,4.4746,4.4838,4.4867,4.4986,4.4992,4.507,4.5084,4.5143,4.5317,4.5331,0,0,0,4.45,4.4547,4.459,4.4662,4.4734,4.4799,4.487,4.4905,4.5007,4.4923,4.5108,4.5116,4.5152,4.5178,4.519,4.5224,4.5057,4.5056,4.5056,4.4611,4.4644,4.4754,4.4808,4.4878,4.4952,4.5013,4.5073,4.5084,4.5128,4.5164,4.5265,4.5294,4.5303,4.5338,4.5192,4.5192,4.5192,4.5192,4.4764,4.4836,4.485,4.4963,4.4998,4.5094,4.517,4.5175,4.5272,4.524,4.5273,4.5237,4.5318,4.535,4.5194,4.5194,4.5193,4.5193,4.5193,4.4842,4.4882,4.4922,4.5033,4.5114,4.5166,4.5258,4.5286,4.5314,4.5346,4.539,4.5389,4.5395,4.5365,4.5365,4.5365,4.5366,4.5366,4.5366,4.4907,4.4952,4.5025,4.5111,4.5163,4.5235,4.5312,4.5365,4.5431,4.5444,4.5445,4.5455,4.5318,4.5285,4.5372,4.5371,4.537,4.537,4.5369,4.5053,4.5025,4.5138,4.519,4.5295,4.5377,4.5411,4.5517,4.5565,4.561,4.5613,4.5507,4.551,4.55,4.5473,4.5603,4.5603,4.5603,4.5603,4.512,4.5124,4.5248,4.533,4.5414,4.5457,4.5589,4.5651,4.5711,4.5744,4.5728,4.5694,4.5683,4.5693,4.5679,4.5654,4.5828,4.5828,4.5828,4.5214,4.5227,4.5332,4.5389,4.5474,4.5547,4.5673,4.5769,4.5831,4.5838,4.577,4.5761,4.5706,4.5686,4.5691,4.5669,4.5624,0,0]}]]